Regional Weather Roundup
Issued by NWS

Home | Current Version | Previous Version | Graphics & Text | Print | Product List | Glossary On
Versions: 1 2 3 4 5 6 7 8 9 10 11 12 13 14 15 16 17 18 19 20 21 22 23 24 25 26 27 28 29 30 31 32 33 34 35 36 37 38 39 40 41 42 43 44 45 46 47 48 49 50
083
ASUS45 KSLC 271610
RWRUT

UTAH REGIONAL WEATHER ROUNDUP
NATIONAL WEATHER SERVICE SALT LAKE CITY UT
1000 AM MDT FRI MAY 27 2016

UTZ001>011-023>025-271700-

NORTHERN UTAH

CITY           SKY/WX    TMP DP  RH WIND       PRES   REMARKS
BRIGHAM CITY     N/A     60  42  52 CALM      29.99S
HILL AFB       MOSUNNY   59  44  57 E7        29.99S
LOGAN          SUNNY     55  45  68 CALM      29.98F
OGDEN          MOSUNNY   61  43  51 SE7       29.97F
PROVO AIRPORT  MOSUNNY   59  37  44 S6        30.01S
SALT LAKE CITY MOSUNNY   64  40  41 VRB5      29.97F
VERNAL         SUNNY     60  39  45 S6        29.98S
WENDOVER       SUNNY     63  37  39 S5        29.98F
HEBER CITY     PTSUNNY   46  39  76 NE3       30.04R

$$

UTZ012>022-026-027-271700-

SOUTHERN/CENTRAL UTAH

CITY           SKY/WX    TMP DP  RH WIND       PRES   REMARKS
BLANDING       SUNNY     57  34  41 CALM      30.07R
BRYCE CANYON   SUNNY     53  33  46 N3        30.09S
CEDAR CITY     SUNNY     56  36  47 W5        30.04S
DELTA          SUNNY     59  37  44 S3        30.01F
HANKSVILLE     SUNNY     64  32  29 CALM      29.98S
MILFORD        SUNNY     59  41  51 S10       30.02S
MOAB/CYNLANDS  SUNNY     64  35  34 N6        29.94R
PRICE          SUNNY     61  33  35 NW13G18   29.98F
ST GEORGE      MOSUNNY   64  36  34 CALM      29.98F
KANAB          SUNNY     63  36  36 CALM      30.04F

$$

REGIONAL REPORTS     COLORADO/ARIZONA

CITY           SKY/WX    TMP DP  RH WIND       PRES   REMARKS
CRAIG, CO      CLOUDY    53  41  63 W6        30.00S
GRAND JUNCTION SUNNY     60  38  43 VRB6      29.94F
RIFLE          CLOUDY    57  37  47 VRB5      29.96F
MONTROSE       CLOUDY    55  35  47 W8        30.00F
CORTEZ         SUNNY     61  34  36 NW8       29.97F
PAGE, AZ       SUNNY     65  35  33 VRB3      29.96F
GRAND CANYON   SUNNY     60  29  30 VRB7      30.08F
KINGMAN        SUNNY     75  30  19 SW10      29.96S
FLAGSTAFF      SUNNY     56  29  35 VRB5      30.10S

$$

REGIONAL REPORTS    NEVADA/IDAHO/WYOMING

CITY           SKY/WX    TMP DP  RH WIND       PRES   REMARKS
LAS VEGAS, NV  MOSUNNY   76  33  21 NE5       29.87S
ELY            MOSUNNY   55  36  48 VRB5      30.06F
ELKO           SUNNY     54  43  66 VRB3      30.01F
POCATELLO, ID  MOSUNNY   59  41  51 SW14      29.98S
BURLEY         SUNNY     58  40  51 W14G25    29.97S
EVANSTON, WY   SUNNY     51  35  54 VRB3      30.05S
ROCK SPRINGS   SUNNY     49  39  68 SW7       30.02F
KEMMERER         N/A     52  36  54 W6        30.04F

$$




USA.gov is the U.S. government's official web portal to all federal, state and local government web resources and services.